[[{"header":{"parameterUnit":"m.s-1","parameterCategory":2,"la1":30.2991,"la2":30.254,"lo1":-89.0895,"lo2":-89.0444,"dy":0.0017,"dx":0.0017,"nx":28,"ny":28,"refTime":"2024-07-31T21:00:00:Z","depth":"0","parameterNumber":2,"parameterNumberName":"U-component_of_CURRENTS"},"data":[0,0,0,0,0,0,0,0,0,0,0,0,0,0,0,0,0,0,0,0,0,0,0,0,0,0,0,0,0,0,0,0,0,0,0,0,0,0,0,0,0,0,0,0,0,0,0,0,0,0,0,0,0,0,0,0,0,0,0.343,0.3431,0,0.3498,0.3499,0.35,0.352,0.352,0.352,0.3519,0.3582,0.3584,0.3586,0,0,0,0,0,0,0,0,0,0,0,0,0,0.3347,0.3348,0.343,0.3431,0.3432,0.3498,0.3499,0.35,0.352,0.352,0.3519,0.3519,0.3581,0.3584,0.3586,0,0,0,0,0,0,0,0,0,0,0,0,0,0.3395,0.3348,0.343,0.345,0.3453,0.3498,0.3499,0.35,0.352,0.352,0.3519,0.3519,0.3581,0.3583,0.3586,0.3614,0,0,0.3595,0.3597,0,0,0,0,0,0,0,0,0.3392,0.3398,0.3446,0.3449,0.3452,0.35,0.3493,0.3538,0.352,0.3494,0.3519,0.3519,0.3555,0.356,0.3573,0.3617,0.3619,0.3596,0.3597,0.3599,0.3599,0,0,0,0,0,0,0,0.3389,0.3395,0.3456,0.3447,0.345,0.3466,0.3472,0.3501,0.3526,0.3496,0.3498,0.3507,0.3556,0.357,0.3575,0.362,0.3596,0.3598,0.36,0.3601,0.3769,0.3772,0,0,0,0,0,0,0.338,0.3392,0.3454,0.3458,0.3421,0.3468,0.3474,0.3485,0.3526,0.3532,0.3507,0.3507,0.3566,0.3571,0.3577,0.3669,0.3599,0.3601,0.3603,0.3767,0.377,0.3773,0,0,0,0,0,0,0.3378,0.3385,0.3452,0.3427,0.3436,0.3469,0.3481,0.3487,0.3502,0.3534,0.3539,0.3516,0.3565,0.3573,0.363,0.3669,0.3603,0.3605,0.3764,0.3768,0.3772,0.3815,0,0,0,0,0,0,0.3376,0.3384,0.3389,0.3426,0.3438,0.3491,0.3482,0.3488,0.3508,0.3509,0.3544,0.3549,0.3566,0.3626,0.3633,0.3672,0.3608,0.376,0.3765,0.377,0.3811,0.3821,0.3829,0,0,0,0,0,0.3373,0.3386,0.3389,0.3396,0.3443,0.3493,0.3501,0.3521,0.3508,0.3529,0.356,0.3548,0.3663,0.363,0.3638,0.3679,0.3758,0.3764,0.377,0.3806,0.3819,0.3829,0,0,0,0,0,0,0.3351,0.3391,0.3394,0.3418,0.3456,0.3496,0.3517,0.3522,0.3561,0.3561,0.3578,0.3588,0.3668,0.3665,0.3628,0.3746,0.371,0.3718,0.3736,0.3747,0.3756,0.3778,0.361,0,0,0,0,0,0.3348,0.3369,0.341,0.3429,0.345,0.348,0.3499,0.3516,0.3554,0.3569,0.3597,0.3637,0.37,0.3713,0.3772,0.3814,0.3825,0.3849,0.3859,0.3866,0.3893,0.3962,0.3979,0.3793,0.3793,0.3793,0,0,0.3345,0.3368,0.338,0.3426,0.3456,0.3508,0.3491,0.3531,0.3584,0.3571,0.3648,0.3681,0.3727,0.3803,0.3833,0.3797,0.3917,0.3874,0.388,0.3903,0.397,0.3988,0.4004,0.3797,0.3796,0.3796,0,0,0.3351,0.3373,0.3394,0.3435,0.3483,0.3522,0.3533,0.3583,0.3617,0.3685,0.3711,0.3762,0.3829,0.388,0.391,0.4,0.3983,0.4012,0.4051,0.4117,0.4132,0.4146,0.414,0.4153,0.3991,0.3991,0.3991,0,0.3339,0.3381,0.3409,0.3449,0.3494,0.3531,0.3581,0.3634,0.3698,0.3741,0.372,0.3859,0.3877,0.3988,0.4019,0.4022,0.4034,0.3996,0.4127,0.4141,0.4155,0.4146,0.416,0.3994,0.3994,0.3993,0.3993,0,0.3365,0.3411,0.3434,0.3506,0.3558,0.3612,0.3691,0.3746,0.3781,0.3833,0.3946,0.3981,0.4056,0.4068,0.4067,0.418,0.4147,0.4146,0.4091,0.4176,0.416,0.4174,0.3998,0.3997,0.3996,0.3996,0,0,0.3307,0.3428,0.3435,0.349,0.3596,0.3644,0.3751,0.3862,0.3929,0.3996,0.4084,0.4181,0.4188,0.4226,0.4231,0.4267,0.434,0.4239,0.4241,0.4218,0.4443,0.4218,0.4211,0.4363,0.4367,0.437,0.4376,0,0.3321,0.3411,0.3471,0.3581,0.3649,0.3733,0.3831,0.3935,0.4016,0.4113,0.4178,0.4267,0.4255,0.4273,0.4327,0.4362,0.4387,0.4336,0.4379,0.4379,0.4158,0.4224,0.3977,0.3946,0.4389,0.4391,0.4393,0,0.3326,0.3396,0.3498,0.3644,0.3677,0.3742,0.39,0.3988,0.4142,0.4198,0.4301,0.436,0.446,0.4412,0.4526,0.4495,0.4482,0.4481,0.4481,0.4275,0.4182,0.3945,0.3954,0.3872,0.4414,0.4412,0.4411,0,0.3294,0.3418,0.3505,0.3554,0.3716,0.3769,0.385,0.4003,0.408,0.4244,0.4296,0.4453,0.4492,0.4567,0.457,0.4566,0.465,0.4638,0.4422,0.4403,0.4203,0.4159,0.4128,0.4712,0.4712,0.4712,0.4712,0,0.3312,0.3377,0.3487,0.3542,0.3626,0.3742,0.3842,0.3944,0.4081,0.4168,0.432,0.4393,0.4536,0.4597,0.4612,0.4543,0.4688,0.4444,0.4408,0.4202,0.4161,0.4086,0.4074,0.4712,0.4712,0.4712,0.4712,0,0.3296,0.3366,0.3456,0.3591,0.3618,0.3672,0.3793,0.3873,0.4002,0.4111,0.416,0.4357,0.4407,0.4488,0.4572,0.4535,0.4378,0.4454,0.4158,0.4085,0.3762,0.376,0.3585,0.3502,0.4226,0.4221,0.4216,0,0.3297,0.3353,0.3457,0.348,0.3534,0.3612,0.3671,0.3809,0.3887,0.407,0.4117,0.421,0.4236,0.426,0.4213,0.4165,0.4129,0.3913,0.3856,0.3711,0.3688,0.3613,0.3555,0.3604,0.3595,0.3588,0.3582,0,0.332,0.3351,0.344,0.3458,0.3495,0.3546,0.363,0.3664,0.3825,0.3893,0.3963,0.3986,0.396,0.3803,0.3732,0.3697,0.3698,0.3749,0.3722,0.3291,0.3094,0.3004,0.3602,0.3515,0.3522,0.3527,0.353,0.3533,0.3318,0.3352,0.3428,0.3432,0.3464,0.346,0.3434,0.3524,0.3568,0.3578,0.3721,0.3617,0.3513,0.3349,0.3297,0.3042,0.3161,0.2947,0.2984,0.2942,0.2773,0.3167,0.296,0.2963,0.2966,0.2968,0.2971,0,0.3274,0.3325,0.3376,0.3357,0.3321,0.3357,0.3385,0.3315,0.3262,0.3291,0.3253,0.3042,0.2834,0.273,0.2488,0.2354,0.2318,0.23,0.2207,0.2216,0.2666,0.2549,0.2093,0.2093,0.2093,0.2093,0.2093,0.2094,0.3252,0.3273,0.3287,0.3189,0.3161,0.3032,0.2987,0.2907,0.2877,0.2667,0.2489,0.2443,0.2396,0.2208,0.1977,0.192,0.1858,0.167,0.1817,0.2196,0.2262,0.2325,0.2215,0.1697,0.1696,0.1245,0.1241,0.1238]},{"header":{"parameterUnit":"m.s-1","parameterCategory":2,"la1":30.2991,"la2":30.254,"lo1":-89.0895,"lo2":-89.0444,"dy":0.0017,"dx":0.0017,"nx":28,"ny":28,"refTime":"2024-07-31T21:00:00:Z","depth":"0","parameterNumber":3,"parameterNumberName":"V-component_of_CURRENTS"},"data":[0,0,0,0,0,0,0,0,0,0,0,0,0,0,0,0,0,0,0,0,0,0,0,0,0,0,0,0,0,0,0,0,0,0,0,0,0,0,0,0,0,0,0,0,0,0,0,0,0,0,0,0,0,0,0,0,0,0,0.0218,0.0218,0,0.0219,0.0219,0.0219,0.0197,0.0196,0.0196,0.0195,0.0184,0.0184,0.0184,0,0,0,0,0,0,0,0,0,0,0,0,0,0.021,0.021,0.0218,0.0218,0.0218,0.0219,0.0219,0.0219,0.0197,0.0196,0.0195,0.0195,0.0184,0.0184,0.0184,0,0,0,0,0,0,0,0,0,0,0,0,0,0.0212,0.021,0.0218,0.0207,0.0206,0.0219,0.0219,0.0219,0.0197,0.0196,0.0195,0.0194,0.0184,0.0184,0.0184,0.0205,0,0,0.0186,0.0186,0,0,0,0,0,0,0,0,0.0212,0.0212,0.0208,0.0208,0.0207,0.0207,0.0212,0.0214,0.0197,0.02,0.0195,0.0194,0.0191,0.0191,0.0193,0.0204,0.0204,0.0186,0.0186,0.0186,0.0186,0,0,0,0,0,0,0,0.0212,0.0212,0.0218,0.0209,0.0207,0.0207,0.0206,0.0213,0.02,0.02,0.0198,0.0199,0.019,0.0193,0.0193,0.0204,0.0186,0.0186,0.0186,0.0186,0.0254,0.0256,0,0,0,0,0,0,0.0212,0.0212,0.0218,0.0218,0.0207,0.0208,0.0207,0.0208,0.0201,0.0199,0.02,0.0198,0.0193,0.0192,0.0192,0.023,0.0186,0.0186,0.0187,0.0253,0.0255,0.0256,0,0,0,0,0,0,0.0212,0.0213,0.0218,0.0215,0.0216,0.0209,0.021,0.0208,0.0211,0.0201,0.0198,0.0204,0.0192,0.0192,0.0207,0.0229,0.0187,0.0187,0.0251,0.0253,0.0255,0.0296,0,0,0,0,0,0,0.0212,0.0213,0.0218,0.0215,0.0216,0.0232,0.0211,0.0209,0.0213,0.021,0.0204,0.0202,0.0191,0.0206,0.0207,0.0228,0.0187,0.0249,0.0252,0.0255,0.0293,0.03,0.0305,0,0,0,0,0,0.0212,0.0224,0.0219,0.022,0.0222,0.0232,0.0233,0.0225,0.0214,0.0222,0.022,0.0202,0.0226,0.0208,0.0209,0.023,0.0247,0.0251,0.0254,0.029,0.0298,0.0305,0,0,0,0,0,0,0.0223,0.0223,0.0217,0.0228,0.0232,0.0229,0.0238,0.0231,0.0235,0.0235,0.0219,0.0218,0.024,0.0235,0.0216,0.0261,0.0235,0.0239,0.0262,0.027,0.0276,0.0299,0.0188,0,0,0,0,0,0.0229,0.0239,0.0236,0.0247,0.025,0.0245,0.0249,0.0245,0.0246,0.0247,0.0241,0.0245,0.0258,0.0261,0.0269,0.0293,0.0303,0.031,0.0316,0.0321,0.0342,0.0403,0.0417,0.0268,0.0268,0.0268,0,0,0.0237,0.0239,0.0244,0.0251,0.0253,0.0272,0.0246,0.0258,0.0276,0.0247,0.027,0.0265,0.027,0.0296,0.0306,0.0291,0.0361,0.0326,0.033,0.0349,0.0408,0.0423,0.0436,0.027,0.027,0.0269,0,0,0.0264,0.026,0.0278,0.0285,0.0294,0.0296,0.0301,0.0302,0.0303,0.0321,0.0312,0.0326,0.0332,0.0347,0.0354,0.0404,0.0393,0.0402,0.045,0.0508,0.0521,0.0533,0.0527,0.0538,0.0404,0.0404,0.0404,0,0.0274,0.0297,0.0287,0.0308,0.0323,0.031,0.0339,0.0344,0.0349,0.0366,0.0334,0.0376,0.0363,0.0421,0.0428,0.0419,0.0432,0.0415,0.0517,0.0529,0.054,0.0532,0.0543,0.0406,0.0406,0.0406,0.0406,0,0.0315,0.0334,0.0348,0.0373,0.0387,0.0412,0.0416,0.043,0.0424,0.0432,0.0474,0.0462,0.0495,0.0483,0.0463,0.0541,0.0515,0.0517,0.0496,0.0558,0.0544,0.0555,0.041,0.0409,0.0408,0.0408,0,0,0.0341,0.0372,0.0378,0.0408,0.0426,0.045,0.0479,0.0517,0.0563,0.0549,0.0615,0.0606,0.0606,0.0616,0.0601,0.0631,0.0687,0.0606,0.0608,0.0596,0.0779,0.0709,0.0713,0.0714,0.0717,0.0719,0.0723,0,0.0381,0.0438,0.044,0.0506,0.0541,0.0541,0.0582,0.0612,0.0629,0.0688,0.0682,0.0736,0.0658,0.0685,0.0704,0.0719,0.0726,0.0683,0.0726,0.0726,0.0655,0.0729,0.0691,0.0689,0.0734,0.0735,0.0737,0,0.0427,0.0463,0.0527,0.0592,0.0609,0.0645,0.0723,0.0759,0.0822,0.0837,0.0876,0.088,0.0928,0.0855,0.089,0.0871,0.0826,0.0807,0.0807,0.0744,0.068,0.0644,0.0708,0.0623,0.0754,0.0752,0.0751,0,0.0471,0.053,0.0589,0.0608,0.0672,0.0708,0.075,0.0811,0.0873,0.0954,0.1018,0.1048,0.1104,0.1073,0.1003,0.097,0.1031,0.0985,0.0863,0.0854,0.0833,0.0819,0.0824,0.1002,0.1002,0.1002,0.1002,0,0.0525,0.0579,0.0617,0.0655,0.0745,0.077,0.0875,0.0914,0.1011,0.1128,0.1114,0.1216,0.117,0.1185,0.1082,0.1014,0.1094,0.0892,0.0875,0.0839,0.0826,0.0758,0.0704,0.1002,0.1002,0.1002,0.1002,0,0.0581,0.0599,0.0674,0.074,0.0769,0.0839,0.0951,0.104,0.1113,0.1271,0.1313,0.1385,0.1398,0.13,0.1266,0.1136,0.1001,0.0999,0.0921,0.0895,0.0679,0.0628,0.0618,0.0596,0.0878,0.0877,0.0876,0,0.0621,0.0662,0.0735,0.0782,0.0818,0.0916,0.0998,0.1084,0.1194,0.1381,0.1483,0.1538,0.1591,0.1478,0.126,0.1066,0.0973,0.0892,0.0816,0.0684,0.0617,0.0583,0.0564,0.0784,0.0782,0.0781,0.078,0,0.0706,0.072,0.0779,0.0863,0.0945,0.1051,0.1179,0.1276,0.1416,0.155,0.1735,0.1793,0.1671,0.1481,0.1194,0.105,0.0826,0.0852,0.0778,0.0601,0.0511,0.0475,0.0715,0.0767,0.0768,0.0769,0.077,0.077,0.0766,0.0812,0.0872,0.0958,0.1054,0.1189,0.1286,0.144,0.1621,0.1823,0.1882,0.1961,0.1676,0.1282,0.1089,0.0689,0.0717,0.0558,0.052,0.0508,0.0461,0.0633,0.0628,0.0629,0.0629,0.0629,0.063,0,0.0827,0.0879,0.0967,0.1068,0.1181,0.1221,0.1414,0.1525,0.1735,0.1892,0.2018,0.1875,0.153,0.1172,0.0625,0.0398,0.0349,0.0294,0.026,0.0267,0.0477,0.0447,0.033,0.033,0.033,0.033,0.033,0.0331,0.0859,0.0944,0.0984,0.116,0.1241,0.1396,0.1502,0.1671,0.1806,0.1941,0.194,0.1924,0.1631,0.0789,0.0268,0.0165,0.0069,0.0003,-0.0004,0.0133,0.0156,0.0177,0.0139,-0.004,-0.0041,-0.0191,-0.0193,-0.0194]}],[{"header":{"parameterUnit":"m.s-1","parameterCategory":2,"la1":30.2991,"la2":30.254,"lo1":-89.0895,"lo2":-89.0444,"dy":0.0017,"dx":0.0017,"nx":28,"ny":28,"refTime":"2024-07-31T21:00:00:Z","depth":"2","parameterNumber":2,"parameterNumberName":"U-component_of_CURRENTS"},"data":[0,0,0,0,0,0,0,0,0,0,0,0,0,0,0,0,0,0,0,0,0,0,0,0,0,0,0,0,0,0,0,0,0,0,0,0,0,0,0,0,0,0,0,0,0,0,0,0,0,0,0,0,0,0,0,0,0,0,0.2436,0.2437,0,0.2406,0.2404,0.2403,0.2417,0.2419,0.2421,0.2423,0.2492,0.2492,0.2492,0,0,0,0,0,0,0,0,0,0,0,0,0,0.2383,0.2383,0.2436,0.2437,0.2438,0.2406,0.2404,0.2402,0.2416,0.2419,0.2421,0.2424,0.2492,0.2492,0.2492,0,0,0,0,0,0,0,0,0,0,0,0,0,0.2371,0.2383,0.2436,0.2451,0.2453,0.2406,0.2404,0.2402,0.2416,0.2419,0.2422,0.2425,0.2492,0.2492,0.2492,0.243,0,0,0.2492,0.2492,0,0,0,0,0,0,0,0,0.2372,0.2372,0.2448,0.245,0.2453,0.243,0.2412,0.2421,0.2415,0.2415,0.2423,0.2426,0.2488,0.2488,0.2454,0.2433,0.2436,0.2492,0.2492,0.2492,0.2492,0,0,0,0,0,0,0,0.2373,0.2373,0.241,0.2449,0.2452,0.2419,0.242,0.2411,0.2426,0.2416,0.242,0.2438,0.2488,0.2454,0.2457,0.2437,0.2492,0.2492,0.2492,0.2492,0.2526,0.2527,0,0,0,0,0,0,0.2408,0.2374,0.2411,0.241,0.2435,0.2419,0.2419,0.2423,0.2424,0.243,0.2435,0.2439,0.2453,0.2457,0.2459,0.2538,0.2492,0.2492,0.2491,0.2525,0.2526,0.2527,0,0,0,0,0,0,0.2406,0.2411,0.2413,0.2403,0.2403,0.2419,0.2421,0.2421,0.2427,0.244,0.2446,0.2448,0.2455,0.246,0.2478,0.2536,0.2492,0.2491,0.2524,0.2525,0.2527,0.26,0,0,0,0,0,0,0.2404,0.241,0.241,0.2405,0.2406,0.2423,0.242,0.2419,0.2438,0.2442,0.2452,0.2459,0.2458,0.2478,0.2478,0.2536,0.2491,0.2523,0.2525,0.2526,0.2597,0.2604,0.2611,0,0,0,0,0,0.2402,0.2405,0.241,0.2415,0.241,0.2425,0.2421,0.2432,0.2436,0.2444,0.2444,0.2461,0.2492,0.2477,0.2478,0.2537,0.2522,0.2524,0.2526,0.2594,0.2603,0.261,0,0,0,0,0,0,0.2393,0.2408,0.2413,0.2423,0.2442,0.2435,0.2433,0.2444,0.2439,0.2444,0.2451,0.2457,0.2525,0.2494,0.2479,0.2551,0.2518,0.252,0.257,0.2578,0.2585,0.2618,0.2491,0,0,0,0,0,0.239,0.2388,0.2412,0.2422,0.2429,0.2429,0.2433,0.2447,0.2452,0.2453,0.2466,0.2478,0.252,0.252,0.2552,0.2546,0.257,0.259,0.2597,0.2603,0.2629,0.2753,0.2776,0.2534,0.2534,0.2534,0,0,0.2384,0.2399,0.2395,0.2418,0.2417,0.2435,0.2436,0.2454,0.2474,0.2461,0.248,0.2522,0.2535,0.2572,0.2594,0.2552,0.2664,0.2606,0.2611,0.2635,0.2758,0.2782,0.2804,0.2536,0.2536,0.2535,0,0,0.2377,0.2389,0.2382,0.2409,0.244,0.2444,0.2465,0.2476,0.2485,0.2501,0.2534,0.2587,0.2599,0.2632,0.2647,0.2694,0.273,0.2721,0.2747,0.2867,0.2889,0.2909,0.2891,0.2909,0.2685,0.2686,0.2686,0,0.2373,0.2369,0.2387,0.2409,0.2423,0.246,0.2466,0.2484,0.2507,0.2522,0.2526,0.2631,0.2631,0.2718,0.2737,0.2717,0.276,0.2716,0.2882,0.2902,0.2922,0.2899,0.2918,0.2689,0.2689,0.2689,0.2688,0,0.2379,0.2374,0.238,0.2409,0.2433,0.2447,0.2491,0.2524,0.2543,0.2568,0.2674,0.2699,0.2763,0.2782,0.2765,0.2912,0.2885,0.2913,0.2869,0.2952,0.2919,0.2938,0.2695,0.2694,0.2692,0.2691,0,0,0.2358,0.2368,0.2376,0.2393,0.2427,0.247,0.2497,0.2539,0.2605,0.2654,0.2734,0.2808,0.2864,0.2887,0.2917,0.2997,0.3119,0.3011,0.3015,0.3004,0.3322,0.31,0.3097,0.3218,0.3223,0.3228,0.3215,0,0.2343,0.2383,0.237,0.2411,0.2432,0.2465,0.2515,0.2581,0.262,0.2718,0.279,0.2889,0.2893,0.2952,0.3047,0.3136,0.3188,0.3115,0.3233,0.3233,0.3042,0.312,0.288,0.2836,0.3233,0.3236,0.3239,0,0.2345,0.2375,0.2386,0.2441,0.2455,0.2498,0.2601,0.2648,0.2769,0.2801,0.2912,0.2981,0.3102,0.311,0.3295,0.3268,0.3303,0.3349,0.335,0.3145,0.3051,0.2834,0.2856,0.327,0.3267,0.3265,0.3263,0,0.2366,0.2389,0.2398,0.242,0.2489,0.2519,0.2584,0.2689,0.2738,0.2875,0.2936,0.3095,0.3191,0.3319,0.3368,0.337,0.3562,0.3553,0.337,0.3348,0.3162,0.3115,0.3702,0.3702,0.3702,0.3702,0.3702,0,0.2354,0.2357,0.2431,0.2458,0.2532,0.2584,0.2664,0.2747,0.2858,0.2934,0.3015,0.3085,0.3279,0.3378,0.342,0.3428,0.3592,0.3391,0.3367,0.3162,0.3119,0.3527,0.3507,0.3701,0.3701,0.3701,0.3701,0,0.23,0.234,0.2373,0.2479,0.2527,0.2599,0.27,0.2776,0.2879,0.2983,0.3027,0.3134,0.322,0.3339,0.35,0.3452,0.3492,0.3451,0.3116,0.3051,0.3167,0.3151,0.3231,0.3224,0.3218,0.3213,0.3209,0,0.2256,0.226,0.2402,0.2469,0.2494,0.2599,0.2675,0.2782,0.2819,0.2969,0.3005,0.3122,0.3119,0.3203,0.3185,0.3181,0.3343,0.2922,0.287,0.3169,0.3138,0.313,0.3122,0.2617,0.2609,0.2602,0.2596,0,0.2151,0.2199,0.2249,0.241,0.2502,0.257,0.2669,0.2674,0.2787,0.2852,0.2863,0.2873,0.2925,0.277,0.2774,0.2746,0.2898,0.2765,0.3266,0.275,0.2584,0.2554,0.2569,0.2532,0.2538,0.2543,0.2547,0.2549,0.2083,0.2077,0.2195,0.232,0.2426,0.2476,0.2461,0.2518,0.2521,0.2535,0.2625,0.2565,0.2569,0.2389,0.2306,0.2256,0.2451,0.2359,0.2386,0.2419,0.2328,0.2159,0.2002,0.2005,0.2008,0.2011,0.2013,0,0.2032,0.2033,0.2119,0.2219,0.2252,0.2389,0.2407,0.2318,0.2224,0.2298,0.2272,0.2037,0.1904,0.1945,0.1746,0.1688,0.1738,0.1631,0.1704,0.1766,0.1822,0.1706,0.1212,0.121,0.1208,0.1206,0,0,0.2,0.2021,0.2033,0.2036,0.2089,0.2064,0.2031,0.1936,0.1914,0.1782,0.175,0.185,0.1884,0.1547,0.1469,0.1316,0.155,0.1261,0.1903,0.2055,0.2108,0.2232,0.212,0,0,0,0,0]},{"header":{"parameterUnit":"m.s-1","parameterCategory":2,"la1":30.2991,"la2":30.254,"lo1":-89.0895,"lo2":-89.0444,"dy":0.0017,"dx":0.0017,"nx":28,"ny":28,"refTime":"2024-07-31T21:00:00:Z","depth":"2","parameterNumber":3,"parameterNumberName":"V-component_of_CURRENTS"},"data":[0,0,0,0,0,0,0,0,0,0,0,0,0,0,0,0,0,0,0,0,0,0,0,0,0,0,0,0,0,0,0,0,0,0,0,0,0,0,0,0,0,0,0,0,0,0,0,0,0,0,0,0,0,0,0,0,0,0,0.0038,0.0038,0,0.002,0.0019,0.0019,0.0005,0.0005,0.0005,0.0005,-0.0016,-0.0016,-0.0017,0,0,0,0,0,0,0,0,0,0,0,0,0,0.0045,0.0045,0.0038,0.0038,0.0038,0.002,0.0019,0.0019,0.0005,0.0005,0.0005,0.0005,-0.0016,-0.0016,-0.0017,0,0,0,0,0,0,0,0,0,0,0,0,0,0.0035,0.0045,0.0038,0.0029,0.0028,0.002,0.0019,0.0019,0.0005,0.0005,0.0005,0.0005,-0.0016,-0.0016,-0.0017,-0.002,0,0,-0.0019,-0.002,0,0,0,0,0,0,0,0,0.0036,0.0035,0.0031,0.003,0.0029,0.0015,0.0014,0.0006,0.0005,0.0013,0.0005,0.0005,-0.0005,-0.0007,-0.0011,-0.0021,-0.0022,-0.0019,-0.002,-0.002,-0.002,0,0,0,0,0,0,0,0.0037,0.0036,0.003,0.0031,0.0029,0.0021,0.0019,0.0012,0.0004,0.0013,0.0012,0.0011,-0.0006,-0.001,-0.0012,-0.0022,-0.0019,-0.002,-0.0021,-0.0021,-0.0024,-0.0023,0,0,0,0,0,0,0.0041,0.0037,0.0031,0.003,0.0033,0.0021,0.0019,0.0019,0.0004,0.0002,0.0011,0.001,-0.0009,-0.0011,-0.0012,0.0003,-0.002,-0.0021,-0.0021,-0.0024,-0.0024,-0.0023,0,0,0,0,0,0,0.0042,0.0041,0.0032,0.0033,0.0031,0.0021,0.0021,0.0019,0.0019,0.0003,0.0001,0.0014,-0.0009,-0.0011,-0.0016,0.0002,-0.0021,-0.0022,-0.0025,-0.0024,-0.0023,0.0022,0,0,0,0,0,0,0.0042,0.0041,0.0044,0.0034,0.0032,0.0037,0.0021,0.0019,0.0019,0.0018,0.0005,0.0003,-0.0009,-0.0015,-0.0017,0.0,-0.0023,-0.0025,-0.0024,-0.0024,0.002,0.0024,0.0028,0,0,0,0,0,0.0042,0.005,0.0045,0.0044,0.0036,0.0037,0.0036,0.0027,0.0019,0.0026,0.0011,0.0003,-0.0012,-0.0015,-0.0018,-0.0,-0.0025,-0.0025,-0.0024,0.0019,0.0024,0.0028,0,0,0,0,0,0,0.0058,0.0049,0.0043,0.0049,0.0047,0.0035,0.0041,0.0032,0.0025,0.0023,0.0005,0.0002,0.0002,-0.0007,-0.001,0.0,-0.0018,-0.0018,0.0015,0.0019,0.0023,0.0046,-0.0023,0,0,0,0,0,0.0062,0.0066,0.0056,0.0063,0.0064,0.0052,0.0052,0.0045,0.0037,0.0034,0.0022,0.0011,0.0003,0.0005,-0.0007,0.0002,0.0004,0.0012,0.0015,0.0019,0.0035,0.0079,0.009,-0.0021,-0.0021,-0.0021,0,0,0.007,0.0067,0.0068,0.0067,0.0064,0.0074,0.0052,0.0057,0.0064,0.0033,0.0038,0.0019,0.0005,0.001,0.0011,0.0008,0.004,0.002,0.0023,0.0038,0.0082,0.0093,0.0102,-0.002,-0.002,-0.002,0,0,0.0092,0.0086,0.0097,0.01,0.0099,0.0093,0.0097,0.0087,0.0083,0.0081,0.0061,0.0054,0.0042,0.004,0.0036,0.0055,0.0053,0.0052,0.0099,0.0142,0.0152,0.0161,0.0134,0.0141,0.0062,0.0062,0.0062,0,0.0101,0.0118,0.0102,0.0118,0.0129,0.0105,0.0128,0.0118,0.0107,0.0114,0.0089,0.0083,0.0059,0.0083,0.0082,0.0066,0.0073,0.0084,0.015,0.0159,0.0168,0.0138,0.0145,0.0065,0.0064,0.0064,0.0064,0,0.0134,0.0149,0.016,0.0172,0.0179,0.0195,0.0184,0.0186,0.0172,0.0166,0.0176,0.0143,0.015,0.0133,0.011,0.016,0.0136,0.0144,0.0144,0.0182,0.0147,0.0153,0.0068,0.0067,0.0066,0.0066,0,0,0.0155,0.0179,0.0184,0.0208,0.0213,0.0227,0.0239,0.0254,0.0286,0.0251,0.0296,0.0252,0.0242,0.0237,0.0213,0.0237,0.0268,0.0223,0.0224,0.0204,0.0327,0.0259,0.0258,0.0307,0.031,0.0312,0.0263,0,0.0191,0.0236,0.0237,0.0286,0.0313,0.0306,0.033,0.0337,0.034,0.0372,0.0337,0.0361,0.0282,0.03,0.0307,0.0294,0.0295,0.0278,0.0286,0.0285,0.0229,0.0268,0.0282,0.0238,0.0269,0.027,0.027,0,0.0227,0.0256,0.0311,0.0362,0.0375,0.04,0.0455,0.0476,0.0501,0.0508,0.0516,0.0496,0.0498,0.0444,0.0424,0.0426,0.0378,0.0352,0.035,0.0284,0.0231,0.0213,0.0248,0.0281,0.028,0.0279,0.0278,0,0.0259,0.0311,0.0362,0.0378,0.0425,0.0456,0.0486,0.0521,0.0572,0.0611,0.0661,0.0638,0.0657,0.061,0.0509,0.0494,0.0492,0.0465,0.0343,0.0334,0.0345,0.0334,0.0464,0.0464,0.0464,0.0464,0.0465,0,0.0299,0.0341,0.0385,0.0415,0.0494,0.051,0.0601,0.0624,0.07,0.0794,0.0745,0.0797,0.0714,0.0684,0.0574,0.0468,0.0536,0.0358,0.0338,0.0352,0.0343,0.0389,0.0382,0.0463,0.0463,0.0463,0.0464,0,0.0326,0.035,0.0417,0.0483,0.0511,0.057,0.0678,0.0756,0.0809,0.0939,0.0965,0.0948,0.0898,0.0778,0.0698,0.0559,0.0461,0.0402,0.0379,0.0358,0.0246,0.024,0.0266,0.0264,0.0262,0.026,0.0259,0,0.0346,0.0381,0.0469,0.0523,0.0558,0.0648,0.0727,0.0802,0.0905,0.1023,0.1102,0.108,0.1052,0.0856,0.065,0.0448,0.0438,0.0306,0.0273,0.0257,0.0236,0.0234,0.0231,0.0282,0.0281,0.028,0.0279,0,0.0392,0.042,0.0478,0.0591,0.0679,0.0784,0.0906,0.0997,0.1119,0.1206,0.1288,0.1265,0.1082,0.0861,0.058,0.044,0.0336,0.0277,0.0331,0.0321,0.0267,0.0247,0.0246,0.0271,0.0272,0.0273,0.0273,0.0273,0.0433,0.0481,0.0567,0.0676,0.0781,0.0921,0.1005,0.1137,0.1274,0.1398,0.1381,0.1333,0.1114,0.0722,0.0497,0.0263,0.0271,0.0172,0.0178,0.0185,0.0187,0.0133,0.0107,0.0107,0.0107,0.0107,0.0107,0,0.0492,0.0553,0.0654,0.0785,0.0902,0.0952,0.1134,0.1203,0.1338,0.1421,0.1441,0.1209,0.097,0.0733,0.0375,0.0146,0.0154,0.0078,0.0147,0.0155,0.0163,0.0167,0.008,0.0079,0.0079,0.0078,0,0,0.0528,0.0628,0.0681,0.0874,0.0961,0.111,0.12,0.1288,0.1362,0.1382,0.1355,0.1291,0.1021,0.0754,0.0474,0.0279,0.0265,0.0236,0.0279,0.0401,0.0411,0.0234,0.0251,0,0,0,0,0]}],[{"header":{"parameterUnit":"m.s-1","parameterCategory":2,"la1":30.2991,"la2":30.254,"lo1":-89.0895,"lo2":-89.0444,"dy":0.0017,"dx":0.0017,"nx":28,"ny":28,"refTime":"2024-07-31T21:00:00:Z","depth":"4","parameterNumber":2,"parameterNumberName":"U-component_of_CURRENTS"},"data":[0,0,0,0,0,0,0,0,0,0,0,0,0,0,0,0,0,0,0,0,0,0,0,0,0,0,0,0,0,0,0,0,0,0,0,0,0,0,0,0,0,0,0,0,0,0,0,0,0,0,0,0,0,0,0,0,0,0,0.1153,0.1153,0,0.1158,0.1158,0.1158,0.1187,0.1188,0.1189,0.119,0.1196,0.1195,0.1194,0,0,0,0,0,0,0,0,0,0,0,0,0,0.1139,0.1139,0.1153,0.1153,0.1153,0.1158,0.1158,0.1158,0.1187,0.1188,0.119,0.1191,0.1196,0.1195,0.1194,0,0,0,0,0,0,0,0,0,0,0,0,0,0.1142,0.1139,0.1153,0.1171,0.1173,0.1158,0.1158,0.1158,0.1187,0.1188,0.119,0.1191,0.1196,0.1195,0.1194,0.1157,0,0,0.119,0.119,0,0,0,0,0,0,0,0,0.1142,0.1142,0.1168,0.117,0.1172,0.1176,0.1155,0.1159,0.1187,0.1178,0.119,0.1192,0.119,0.1189,0.1183,0.1158,0.1158,0.119,0.119,0.1189,0.1189,0,0,0,0,0,0,0,0.1141,0.1142,0.1152,0.1168,0.117,0.1169,0.1171,0.1156,0.1173,0.1179,0.1182,0.1187,0.1191,0.1184,0.1183,0.1158,0.119,0.1189,0.1189,0.1188,0.1191,0.1192,0,0,0,0,0,0,0.1146,0.1142,0.1152,0.1152,0.1163,0.1168,0.117,0.1171,0.1174,0.1177,0.1186,0.1188,0.1185,0.1185,0.1184,0.122,0.1189,0.1188,0.1187,0.1191,0.1192,0.1192,0,0,0,0,0,0,0.1146,0.1147,0.1152,0.115,0.1151,0.1168,0.1167,0.117,0.1195,0.1179,0.1182,0.1212,0.1186,0.1185,0.1178,0.1217,0.1187,0.1186,0.119,0.1191,0.1192,0.1241,0,0,0,0,0,0,0.1145,0.1147,0.1161,0.115,0.1151,0.1159,0.1166,0.1169,0.1195,0.12,0.1202,0.1202,0.1187,0.118,0.1177,0.1215,0.1186,0.1189,0.119,0.1192,0.1239,0.1244,0.1249,0,0,0,0,0,0.1145,0.115,0.1162,0.1164,0.1166,0.1159,0.116,0.1174,0.1196,0.1203,0.1197,0.1204,0.1189,0.1178,0.1175,0.1214,0.1188,0.119,0.1192,0.1237,0.1243,0.1249,0,0,0,0,0,0,0.1152,0.1153,0.1166,0.1173,0.1177,0.1166,0.1179,0.119,0.1192,0.1208,0.1193,0.1191,0.12,0.1195,0.1185,0.122,0.1198,0.1199,0.1233,0.1239,0.1244,0.126,0.1185,0,0,0,0,0,0.1161,0.1167,0.1167,0.1176,0.1181,0.1187,0.1194,0.1206,0.1202,0.1207,0.1211,0.1213,0.1199,0.121,0.1194,0.1207,0.123,0.1237,0.1242,0.1246,0.1257,0.1307,0.1319,0.1198,0.1198,0.1198,0,0,0.1167,0.117,0.1175,0.118,0.1186,0.1184,0.1195,0.1213,0.1223,0.1205,0.1228,0.1221,0.12,0.121,0.1218,0.1218,0.1296,0.1248,0.1252,0.1261,0.1311,0.1323,0.1333,0.1199,0.1199,0.1199,0,0,0.1161,0.1186,0.1182,0.1187,0.1204,0.1207,0.122,0.1231,0.1252,0.1258,0.1251,0.127,0.1257,0.126,0.1253,0.1278,0.1306,0.1287,0.1341,0.139,0.1401,0.1411,0.1472,0.1487,0.1306,0.1306,0.1306,0,0.1175,0.1165,0.1182,0.1177,0.1188,0.1219,0.1219,0.1234,0.1248,0.1268,0.1276,0.1287,0.1281,0.1292,0.1308,0.1293,0.1328,0.1319,0.1399,0.1409,0.1418,0.1478,0.1494,0.1309,0.1309,0.1308,0.1308,0,0.116,0.1157,0.1158,0.1164,0.118,0.1189,0.1212,0.1248,0.1285,0.1301,0.1339,0.1335,0.1352,0.1361,0.134,0.1405,0.1412,0.1387,0.1387,0.1433,0.1494,0.1509,0.1313,0.1312,0.1311,0.131,0,0,0.116,0.115,0.115,0.1148,0.1179,0.1184,0.1222,0.1255,0.1295,0.1333,0.1377,0.1384,0.1419,0.1415,0.1418,0.1472,0.1573,0.1471,0.1472,0.1539,0.1704,0.1519,0.1518,0.1567,0.157,0.1572,0.1728,0,0.1143,0.1125,0.1133,0.1129,0.1122,0.1173,0.1203,0.125,0.1301,0.1356,0.1396,0.1436,0.1428,0.1465,0.1511,0.1552,0.1614,0.1535,0.1644,0.1647,0.1481,0.1528,0.158,0.1739,0.1743,0.1745,0.1747,0,0.1113,0.1108,0.1101,0.1111,0.1119,0.1139,0.1219,0.1255,0.134,0.1385,0.1449,0.1482,0.1571,0.1554,0.168,0.1634,0.1679,0.1712,0.1719,0.1536,0.1488,0.1678,0.1775,0.1773,0.1771,0.1769,0.1767,0,0.1087,0.1077,0.1077,0.1082,0.1111,0.1145,0.1189,0.1275,0.132,0.1434,0.1492,0.1571,0.1652,0.171,0.1777,0.1755,0.1902,0.1876,0.1752,0.1742,0.1844,0.1832,0.1963,0.1963,0.1963,0.1962,0.1962,0,0.1044,0.1032,0.107,0.1067,0.1098,0.1142,0.12,0.1266,0.1359,0.1418,0.1523,0.1584,0.1701,0.1782,0.1815,0.1825,0.1941,0.1772,0.1764,0.1862,0.185,0.1857,0.1842,0.1968,0.1967,0.1966,0.1965,0,0.0976,0.1001,0.1005,0.1057,0.1077,0.1117,0.1195,0.1233,0.1358,0.1446,0.1497,0.1643,0.1756,0.183,0.1948,0.1877,0.1903,0.1874,0.1998,0.1994,0.1712,0.1699,0.1772,0.1767,0.1762,0.1759,0.1755,0,0.0928,0.0921,0.0996,0.101,0.103,0.1085,0.1118,0.1229,0.1274,0.1458,0.1492,0.1652,0.1727,0.1773,0.1839,0.188,0.1842,0.1851,0.1752,0.1705,0.1692,0.1685,0.1678,0.1748,0.1747,0.1746,0.1745,0,0.0836,0.0886,0.0903,0.0943,0.0983,0.101,0.1072,0.1104,0.1246,0.1357,0.1464,0.152,0.163,0.1693,0.1729,0.1744,0.1836,0.1803,0.1812,0.172,0.1677,0.1666,0.1665,0.1729,0.1731,0.1732,0.1733,0,0.0794,0.0794,0.084,0.0869,0.0907,0.0933,0.0975,0.1032,0.1106,0.131,0.1336,0.1499,0.1627,0.1623,0.1651,0.1645,0.1615,0.155,0.1572,0.159,0.1442,0.1355,0.1313,0,0,0,0,0,0.0756,0.0743,0.0745,0.0796,0.0823,0.0862,0.0933,0.0985,0.1133,0.1171,0.125,0.1337,0.1396,0.1471,0.1429,0.1539,0.1605,0.1476,0.1538,0.1641,0.1659,0.1492,0,0,0,0,0,0,0.0737,0.0734,0.0728,0.072,0.0739,0.0778,0.0838,0.0932,0.0958,0.1108,0.116,0.124,0.1329,0.1428,0.1411,0.1422,0.1423,0.1552,0.1547,0.163,0.1647,0.1662,0.1496,0,0,0,0,0]},{"header":{"parameterUnit":"m.s-1","parameterCategory":2,"la1":30.2991,"la2":30.254,"lo1":-89.0895,"lo2":-89.0444,"dy":0.0017,"dx":0.0017,"nx":28,"ny":28,"refTime":"2024-07-31T21:00:00:Z","depth":"4","parameterNumber":3,"parameterNumberName":"V-component_of_CURRENTS"},"data":[0,0,0,0,0,0,0,0,0,0,0,0,0,0,0,0,0,0,0,0,0,0,0,0,0,0,0,0,0,0,0,0,0,0,0,0,0,0,0,0,0,0,0,0,0,0,0,0,0,0,0,0,0,0,0,0,0,0,0.0059,0.0059,0,0.0049,0.0049,0.0049,0.0044,0.0044,0.0044,0.0044,0.0035,0.0035,0.0035,0,0,0,0,0,0,0,0,0,0,0,0,0,0.0057,0.0058,0.0059,0.0059,0.0059,0.0049,0.0049,0.0049,0.0044,0.0044,0.0044,0.0045,0.0036,0.0035,0.0035,0,0,0,0,0,0,0,0,0,0,0,0,0,0.0053,0.0058,0.0059,0.0056,0.0055,0.0049,0.0049,0.0049,0.0044,0.0044,0.0044,0.0045,0.0036,0.0035,0.0035,0.003,0,0,0.0033,0.0033,0,0,0,0,0,0,0,0,0.0054,0.0053,0.0056,0.0056,0.0056,0.0049,0.0045,0.0043,0.0044,0.0048,0.0044,0.0045,0.004,0.004,0.0036,0.0029,0.0029,0.0033,0.0033,0.0033,0.0033,0,0,0,0,0,0,0,0.0054,0.0054,0.0054,0.0056,0.0056,0.005,0.0049,0.0045,0.0043,0.0047,0.0047,0.0047,0.004,0.0037,0.0036,0.0029,0.0033,0.0033,0.0033,0.0032,0.0016,0.0015,0,0,0,0,0,0,0.0057,0.0054,0.0054,0.0054,0.0056,0.005,0.0049,0.005,0.0043,0.0042,0.0047,0.0047,0.0038,0.0037,0.0036,0.0045,0.0033,0.0032,0.0032,0.0016,0.0016,0.0015,0,0,0,0,0,0,0.0057,0.0057,0.0055,0.0054,0.0054,0.005,0.0051,0.005,0.0051,0.0043,0.0042,0.005,0.0038,0.0036,0.004,0.0044,0.0032,0.0032,0.0016,0.0016,0.0016,0.0053,0,0,0,0,0,0,0.0057,0.0058,0.0061,0.0055,0.0054,0.006,0.0051,0.005,0.0051,0.0051,0.0045,0.0044,0.0038,0.0041,0.004,0.0043,0.0031,0.0016,0.0016,0.0016,0.0052,0.0055,0.0056,0,0,0,0,0,0.0057,0.0062,0.0061,0.0061,0.0058,0.0061,0.006,0.0057,0.0052,0.0057,0.0053,0.0045,0.0037,0.0041,0.0039,0.0043,0.0016,0.0016,0.0016,0.0052,0.0054,0.0056,0,0,0,0,0,0,0.0066,0.0062,0.0061,0.0065,0.0067,0.006,0.0065,0.006,0.006,0.0059,0.0049,0.0048,0.0049,0.0039,0.0043,0.0034,0.0023,0.0022,0.005,0.0053,0.0055,0.0063,0.0031,0,0,0,0,0,0.0069,0.007,0.0069,0.0073,0.0076,0.007,0.0071,0.0068,0.0066,0.0065,0.006,0.0051,0.0045,0.0045,0.0036,0.0038,0.002,0.0036,0.0038,0.0039,0.0044,0.0016,0.0016,0.0014,0.0014,0.0014,0,0,0.0074,0.0071,0.0073,0.0075,0.0075,0.0087,0.0071,0.0075,0.0084,0.0064,0.0074,0.0059,0.0046,0.0046,0.0045,0.0041,0.003,0.0039,0.0041,0.0044,0.0016,0.0016,0.0016,0.0014,0.0014,0.0014,0,0,0.0087,0.0083,0.0093,0.0097,0.0099,0.0098,0.0102,0.0098,0.0096,0.0101,0.0086,0.0076,0.007,0.006,0.0055,0.0061,0.004,0.0055,0.0077,0.005,0.005,0.005,0.0029,0.0027,0.0058,0.0059,0.0059,0,0.0094,0.0108,0.0097,0.011,0.0121,0.0107,0.0128,0.0123,0.012,0.0122,0.0109,0.0085,0.0076,0.0072,0.0077,0.0067,0.005,0.0073,0.0054,0.0053,0.0052,0.0031,0.0028,0.006,0.006,0.006,0.006,0,0.0116,0.0131,0.0138,0.0153,0.0161,0.0175,0.0173,0.0175,0.0167,0.016,0.0148,0.0122,0.0109,0.0099,0.0095,0.0084,0.0073,0.0059,0.0051,0.0055,0.0032,0.0028,0.0063,0.0062,0.0062,0.0061,0,0,0.0125,0.0151,0.0155,0.0179,0.0188,0.0201,0.0213,0.0225,0.0232,0.0206,0.0203,0.0184,0.0158,0.0149,0.0126,0.0103,0.0086,0.0086,0.0084,0.0072,0.0031,0.0024,0.0019,0.0069,0.0069,0.0068,0.0018,0,0.0152,0.0192,0.0196,0.0242,0.0267,0.0264,0.028,0.0283,0.0271,0.0259,0.0215,0.0207,0.018,0.0172,0.0142,0.01,0.0077,0.0101,0.0023,0.0021,0.0019,0.0015,0.0067,0.0015,0.0014,0.0013,0.0013,0,0.0173,0.0204,0.0253,0.0298,0.0309,0.0334,0.0358,0.037,0.0347,0.0331,0.0297,0.0259,0.0224,0.0192,0.0119,0.0136,0.0092,0.0052,0.0048,0.0027,0.0007,0.0008,0.0006,0.0006,0.0007,0.0007,0.0008,0,0.019,0.0243,0.0289,0.0304,0.0347,0.0373,0.0399,0.0397,0.0408,0.0378,0.0369,0.0307,0.0282,0.0208,0.013,0.0128,0.0037,0.0022,-0.003,-0.0031,-0.0026,-0.0025,-0.0033,-0.0033,-0.0032,-0.0032,-0.0032,0,0.0214,0.0253,0.0307,0.0334,0.0397,0.0413,0.0459,0.0466,0.046,0.0471,0.0413,0.039,0.0287,0.0219,0.0137,0.0043,0.0043,-0.0027,-0.0046,-0.0009,-0.0006,-0.0029,-0.0027,-0.0034,-0.0034,-0.0033,-0.0033,0,0.0224,0.0253,0.0312,0.0378,0.0407,0.0452,0.0514,0.0535,0.0532,0.0536,0.0532,0.0461,0.0378,0.0264,0.0144,0.007,-0.0029,-0.0062,-0.0009,-0.0025,-0.0082,-0.0078,-0.0125,-0.0126,-0.0127,-0.0127,-0.0127,0,0.0232,0.0264,0.0349,0.0385,0.0422,0.0492,0.0535,0.0568,0.0584,0.0577,0.0572,0.0505,0.0442,0.0269,0.0145,-0.0017,-0.0041,-0.0091,-0.0093,-0.0078,-0.0092,-0.0087,-0.0083,-0.0128,-0.0129,-0.0129,-0.0129,0,0.0257,0.0282,0.0335,0.0413,0.0474,0.0535,0.0599,0.0618,0.0644,0.0643,0.0611,0.0521,0.0419,0.0275,0.0152,0.0032,-0.0061,-0.0097,-0.0097,-0.0099,-0.0082,-0.0095,-0.009,-0.0131,-0.0131,-0.013,-0.013,0,0.0277,0.031,0.0373,0.0444,0.0511,0.0562,0.0596,0.0629,0.0656,0.0651,0.064,0.0534,0.0477,0.03,0.018,0.0065,0.0033,-0.0006,-0.0011,-0.0011,0.0032,0.0071,0.0054,0,0,0,0,0,0.0296,0.0335,0.0397,0.0473,0.0533,0.0575,0.0629,0.0649,0.068,0.0669,0.0659,0.0566,0.0397,0.0318,0.0203,0.0151,-0.0001,0.001,-0.0051,-0.0142,-0.014,-0.0111,0,0,0,0,0,0,0.0307,0.0367,0.0401,0.0485,0.0533,0.0606,0.064,0.0657,0.0647,0.0655,0.0567,0.0538,0.0369,0.0471,0.0204,0.0167,0.011,-0.0065,-0.0068,-0.0143,-0.0141,-0.0139,-0.0109,0,0,0,0,0]}]]